Regional Weather Roundup
Issued by NWS

Home | Current Version | Previous Version | Text Only | Print | Product List | Glossary On
Versions: 1 2 3 4 5 6 7 8 9 10 11 12 13 14 15 16 17 18 19 20 21 22 23 24 25 26 27 28 29 30 31 32 33 34 35 36 37 38 39 40 41 42 43 44 45 46 47 48 49 50
000
ASUS43 KMKX 272321
RWRWI

WISCONSIN REGIONAL WEATHER ROUNDUP
NATIONAL WEATHER SERVICE MILWAUKEE/SULLIVAN WI
500 PM CST MON FEB 27 2017

NOTE: "FAIR" INDICATES FEW OR NO CLOUDS BELOW 12,000 FEET WITH NO
SIGNIFICANT WEATHER AND/OR OBSTRUCTIONS TO VISIBILITY.

WIZ001-002-006>008-014>016-023>028-280000-
NORTHWEST WISCONSIN

CITY           SKY/WX    TMP DP  RH WIND       PRES   REMARKS
SUPERIOR ARPT  CLOUDY    29  25  86 NE8       29.91F WCI  21
ASHLAND        MOCLDY    32  24  72 NE7       29.93R WCI  26
HAYWARD        PTCLDY    40  15  36 S14       29.90S WCI  32
SIREN          CLEAR     41  16  35 S7        29.89S
CUMBERLAND     CLOUDY    36  21  55 S10       29.91S WCI  28
RICE LAKE      CLOUDY    38  20  48 SE10      29.94S WCI  31
CHETEK         CLOUDY    39  21  48 SE6       29.93S WCI  35
LADYSMITH      CLOUDY    40  20  46 S6        29.95S
EAU CLAIRE     CLOUDY    40  21  46 S9        29.94F WCI  34
MENOMONIE      CLOUDY    39  24  53 SE5       29.93F
NEW RICHMOND   CLOUDY    40  20  44 S8        29.91S WCI  35
OSCEOLA        CLOUDY    42  20  42 SE14      29.92F
$$

WIZ003>005-009-010-017-018-280000-
NORTH CENTRAL WISCONSIN

CITY           SKY/WX    TMP DP  RH WIND       PRES   REMARKS
MANITOWISH WTR CLEAR     38  16  42 SW10      29.92S WCI  30
ARBOR VITAE    CLEAR     39  21  48 S10G16      N/A  WCI  32
WOODRUFF       CLEAR     39  21  48 S10G16      N/A  WCI  32
RHINELANDER    CLEAR     39  17  41 S10       29.96S WCI  32
EAGLE RIVER    CLEAR     37  13  37 SW7       29.94S WCI  32
LAND O LAKES   CLEAR     38  16  41 S5        29.95S WCI  34
PHILLIPS       PTCLDY    38  16  42 S7        29.93S WCI  32
TOMAHAWK       CLEAR     36  18  48 S3        29.96F
MEDFORD        PTCLDY    35  19  53 S6        29.95F WCI  30
MERRILL        NOT AVBL
$$

WIZ029-030-035-036-043>047-280000-
CENTRAL WISCONSIN

CITY           SKY/WX    TMP DP  RH WIND       PRES   REMARKS
WAUSAU         CLEAR     39  19  44 S7        29.97F WCI  34
MOSINEE        PTCLDY    37  19  48 S9        29.99F WCI  31
MARSHFIELD     CLEAR     40  18  41 S10       29.96F WCI  33
STEVENS POINT  CLEAR     39  22  50 S8        30.00S WCI  34
WAUPACA        CLEAR     42  28  58 SE6       30.03S
WAUTOMA        PTCLDY    43  30  60 S6        30.02F
WISC RAPIDS    CLEAR     42  26  53 SW8       30.00S
CAMP DOUGLAS   MOCLDY    45  30  57 S5        29.99S
$$

WIZ011>013-019>022-031-037>040-048>050-280000-
NORTHEAST WISCONSIN

CITY           SKY/WX    TMP DP  RH WIND       PRES   REMARKS
ANTIGO         CLEAR     35  20  54 S7        29.98F WCI  29
SHAWANO        CLEAR     41  25  53 S6        30.04S
OCONTO         CLEAR     37  27  67 S6        30.06S WCI  32
STURGEON BAY   CLOUDY    35  29  78 S10       30.07S WCI  27
GREEN BAY      CLOUDY    37  32  82 SE7       30.06R WCI  32
MANITOWOC      PTCLDY    37  32  82 S13       30.07F WCI  29
APPLETON       MOCLDY    37  27  65 SE6       30.03R WCI  33
CLINTONVILLE   CLEAR     39  27  60 S8        30.03S WCI  34
OSHKOSH        PTCLDY    38  30  73 SE6       30.03S WCI  33
$$

WIZ032>034-041-042-053>061-280000-
SOUTHWEST WISCONSIN

CITY           SKY/WX    TMP DP  RH WIND       PRES   REMARKS
LA CROSSE      CLEAR     47  31  53 S9        29.97S
SPARTA         CLEAR     45  30  56 S8        30.00R
VIROQUA        CLEAR     43  32  65 S7        29.98R
BOSCOBEL       PTCLDY    50  33  52 S6        29.99F
PRAIRIE DU CHI PTCLDY    49  32  52 SE7       29.98S
PLATTEVILLE    CLOUDY    47  34  61 S8        30.00S
$$

WIZ056-057-062-063-064-067-068-280000-
SOUTH CENTRAL WISCONSIN

CITY           SKY/WX    TMP DP  RH WIND       PRES   REMARKS
REEDSBURG      MOCLDY    43  32  66 S6        30.00R
BARABOO/DELLS  MOCLDY    43  31  61 SW7       30.00S
LONE ROCK      MOCLDY    48  33  56 S8        30.01R
MINERAL POINT  PTCLDY    48  34  57 S8        30.00R
MADISON        MOCLDY    47  29  49 S9        30.01S
MIDDLETON      CLEAR     49  32  52 S9        30.02R
WATERTOWN      CLEAR     46  33  61 S8        30.02F
MONROE         CLOUDY    46  32  57 S8        30.01R
JANESVILLE     PTCLDY    52  28  40 S7        30.02F
$$

WIZ051-052-058>065-066-070>072-280000-
SOUTHEAST WISCONSIN

CITY           SKY/WX    TMP DP  RH WIND       PRES   REMARKS
MILWAUKEE      MOCLDY    46  33  60 S10       30.06F
WAUKESHA       PTCLDY    45  30  57 S14       30.05F
MILWAUKEE/TIMM PTCLDY    45  30  57 SE9       30.06F
RACINE         CLEAR     42  33  70 S15       30.09F
KENOSHA        CLEAR     44  33  65 SE13      30.07F
FOND DU LAC    CLEAR     42  29  59 CALM      30.03S
SHEBOYGAN      CLEAR     38  31  76 S7        30.06F WCI  33
WEST BEND      CLOUDY    43  32  65 SE5       30.04F
JUNEAU         CLEAR     45  32  60 S8        30.03F
$$

LSZ147-162-280000-
LAKE SUPERIOR

STATION/POSITION TIME  TEMP    WIND        PRES    WAVE
                       AIR SEA DIR/SP/G            HT/PER
                 (UTC) (F)     (DEG/KT/KT) (MB)    (FT/S)
DEVILS ISLAND    2300   29      50/ 10/ 11 1014.9F
PORT WING        2240   29      40/ 13/ 15 1013.2F
SAXON HARBOR     2240   31      50/ 10/ 12 1013.2F
$$

LMZ867-665-643>646-280000-
LAKE MICHIGAN

STATION/POSITION TIME  TEMP    WIND        PRES    WAVE
                       AIR SEA DIR/SP/G            HT/PER
                 (UTC) (F)     (DEG/KT/KT) (MB)    (FT/S)
CHAMBERS ISLAND  2240   37     150/  3/ 11 1017.6F
NORTHPORT PIER   2240   37     170/  7/ 15 1018.3S
SISTER BAY       2220          190/ 18/ 21   N/A
KEWAUNEE LAKESHO 2254   36     180/  9/ 11 1018.0F
SHEBOYGAN LAKESH 2300   37     180/ 11/ 12 1018.6F
PORT WASHINGTON  2240   39     190/  8/ 12 1019.0F
MILWAUKEE LAKESH 2250   38     140/ 14/ 14   N/A
KENOSHA   LAKESH 2300   38     180/  8/ 11 1018.6
$$

TC  - TEMPERATURE IN CELSIUS
VSB - VISIBILITY IN STATUTE MILES
WCI - WIND CHILL INDEX
HX  - HEAT INDEX




USA.gov is the U.S. government's official web portal to all federal, state and local government web resources and services.